CW8306 Weather Reports


Display with metric or nautical units.
time (UTC)temp
F
wind
direction
speed
MPH
gust
MPH
rain 1hr
in
rain 24hr
in
rain mn
in
humidity
%
barometer
mb
20260831001427 77 267 2.0 3.0 0.00 0.00 0.00 67 1008.8
20260831000924 78 161 2.0 3.0 0.00 0.00 0.00 67 1008.7
20260831000420 78 102 2.0 5.0 0.00 0.00 0.00 66 1009.0
20260830235918 78 130 2.0 2.0 0.00 0.00 0.00 66 1008.7
20260830235413 79 176 1.0 7.0 0.00 0.00 0.00 65 1008.6
20260830234908 79 190 2.0 5.0 0.00 0.00 0.00 64 1008.8
20260830234403 79 196 2.0 3.0 0.00 0.00 0.00 64 1008.7
20260830233859 80 208 1.0 5.0 0.00 0.00 0.00 63 1008.7
20260830233354 79 161 4.0 7.0 0.00 0.00 0.00 63 1008.5
20260830232850 80 172 1.0 5.0 0.00 0.00 0.00 62 1008.7
20260830232345 81 201 4.0 6.0 0.00 0.00 0.00 61 1008.5
20260830231842 80 150 2.0 5.0 0.00 0.00 0.00 61 1008.7
20260830231337 80 332 2.0 3.0 0.00 0.00 0.00 62 1008.7
20260830230836 80 205 2.0 6.0 0.00 0.00 0.00 61 1008.8
20260830230332 80 197 2.0 6.0 0.00 0.00 0.00 62 1009.0
20260830225831 80 192 2.0 5.0 0.00 0.00 0.00 62 1008.9
20260830225326 80 185 5.0 6.0 0.00 0.00 0.00 62 1008.8
20260830224827 80 173 3.0 6.0 0.00 0.00 0.00 61 1008.9
20260830224321 81 128 3.0 7.0 0.00 0.00 0.00 60 1009.0
20260830223818 81 198 2.0 2.0 0.00 0.00 0.00 60 1009.3
20260830223314 81 144 3.0 5.0 0.00 0.00 0.00 59 1009.4
20260830222807 80 117 2.0 6.0 0.00 0.00 0.00 59 1009.3
20260830222306 80 164 3.0 5.0 0.00 0.00 0.00 59 1009.4
20260830221758 80 213 1.0 10.0 0.00 0.00 0.00 59 1009.6
20260830221255 80 121 4.0 8.0 0.00 0.00 0.00 59 1009.5
20260830220756 80 162 3.0 6.0 0.00 0.00 0.00 60 1009.4
20260830220255 81 169 2.0 5.0 0.00 0.00 0.00 59 1009.5
20260830215753 81 185 3.0 11.0 0.00 0.00 0.00 59 1009.7
20260830215248 82 110 2.0 6.0 0.00 0.00 0.00 57 1009.9
20260830214743 82 192 3.0 13.0 0.00 0.00 0.00 56 1009.8
20260830214243 82 115 1.0 3.0 0.00 0.00 0.00 57 1009.8
20260830213742 81 210 2.0 7.0 0.00 0.00 0.00 58 1009.8
20260830213237 81 173 2.0 8.0 0.00 0.00 0.00 58 1009.8
20260830212733 81 129 4.0 6.0 0.00 0.00 0.00 58 1010.0
20260830212229 81 178 3.0 5.0 0.00 0.00 0.00 58 1010.2
20260830211728 81 79 4.0 7.0 0.00 0.00 0.00 58 1010.4
20260830211228 81 170 2.0 7.0 0.00 0.00 0.00 60 1010.6
20260830210724 81 171 1.0 5.0 0.00 0.00 0.00 60 1010.4
20260830210223 81 206 2.0 6.0 0.00 0.00 0.00 60 1010.4
20260830205720 81 106 3.0 5.0 0.00 0.00 0.00 60 1010.6
20260830205215 81 188 4.0 6.0 0.00 0.00 0.00 60 1010.5
20260830204710 80 158 2.0 3.0 0.00 0.00 0.00 60 1010.4
20260830204209 80 185 3.0 5.0 0.00 0.00 0.00 60 1010.5
20260830203706 80 156 2.0 6.0 0.00 0.00 0.00 60 1010.5
20260830203201 80 157 3.0 7.0 0.00 0.00 0.00 59 1010.5
20260830202700 81 173 3.0 5.0 0.00 0.00 0.00 59 1010.8
20260830202156 81 220 3.0 5.0 0.00 0.00 0.00 58 1010.7
20260830201655 81 227 1.0 5.0 0.00 0.00 0.00 58 1010.6
20260830201150 81 182 1.0 7.0 0.00 0.00 0.00 57 1010.6
20260830200646 81 164 3.0 5.0 0.00 0.00 0.00 58 1010.7
20260830200145 82 177 5.0 8.0 0.00 0.00 0.00 58 1010.5
20260830195640 82 142 2.0 5.0 0.00 0.00 0.00 60 1010.7
20260830195138 82 223 1.0 5.0 0.00 0.00 0.00 62 1010.5
20260830194638 82 148 2.0 5.0 0.00 0.00 0.00 61 1010.6
20260830194137 83 134 3.0 5.0 0.00 0.00 0.00 60 1010.6
20260830193632 83 149 2.0 5.0 0.00 0.00 0.00 59 1010.6
20260830193127 83 203 3.0 7.0 0.00 0.00 0.00 59 1010.7
20260830192622 83 184 3.0 6.0 0.00 0.00 0.00 60 1010.8
20260830192117 84 179 2.0 3.0 0.00 0.00 0.00 60 1010.7
20260830191612 84 140 1.0 6.0 0.00 0.00 0.00 60 1010.7
20260830191108 83 208 2.0 7.0 0.00 0.00 0.00 60 1010.7
20260830190603 83 200 2.0 3.0 0.00 0.00 0.00 61 1010.6
20260830190058 83 98 4.0 6.0 0.00 0.00 0.00 61 1010.8
20260830185551 84 144 4.0 6.0 0.00 0.00 0.00 60 1010.6
20260830185047 84 138 3.0 6.0 0.00 0.00 0.00 60 1010.8
20260830184546 84 218 2.0 5.0 0.00 0.00 0.00 60 1011.0
20260830184040 84 222 2.0 7.0 0.00 0.00 0.00 60 1011.0
20260830183535 84 215 2.0 6.0 0.00 0.00 0.00 60 1011.0
20260830183031 84 121 3.0 5.0 0.00 0.00 0.00 60 1010.9
20260830182527 83 138 3.0 5.0 0.00 0.00 0.00 61 1011.2
20260830182023 82 131 2.0 8.0 0.00 0.00 0.00 61 1011.2
20260830181519 82 118 2.0 5.0 0.00 0.00 0.00 62 1011.2
20260830181018 82 163 2.0 6.0 0.00 0.00 0.00 62 1011.4
20260830180517 82 172 5.0 8.0 0.00 0.00 0.00 62 1011.3
20260830180017 82 217 2.0 7.0 0.00 0.00 0.00 63 1011.3
20260830175516 81 157 4.0 5.0 0.00 0.00 0.00 63 1011.7
20260830175012 82 94 3.0 5.0 0.00 0.00 0.00 62 1011.7
20260830174507 81 174 2.0 3.0 0.00 0.00 0.00 63 1011.7
20260830174002 81 172 3.0 7.0 0.00 0.00 0.00 62 1011.7
20260830173458 82 169 2.0 7.0 0.00 0.00 0.00 61 1011.8
20260830172952 82 201 1.0 5.0 0.00 0.00 0.00 63 1011.9
20260830172449 82 182 2.0 5.0 0.00 0.00 0.00 61 1011.7
20260830171944 82 142 2.0 7.0 0.00 0.00 0.00 63 1011.9
20260830171440 82 188 3.0 6.0 0.00 0.00 0.00 62 1012.1
20260830170934 83 195 3.0 6.0 0.00 0.00 0.00 62 1012.0
20260830170434 83 141 3.0 5.0 0.00 0.00 0.00 63 1011.9
20260830165931 82 130 2.0 6.0 0.00 0.00 0.00 64 1012.0
20260830165429 82 197 1.0 2.0 0.00 0.00 0.00 66 1012.0
20260830164924 82 193 2.0 5.0 0.00 0.00 0.00 65 1012.2
20260830164420 81 129 3.0 6.0 0.00 0.00 0.00 66 1012.3
20260830163916 81 181 4.0 6.0 0.00 0.00 0.00 67 1012.2
20260830163413 80 167 2.0 6.0 0.00 0.00 0.00 68 1012.3
20260830162912 81 189 3.0 5.0 0.00 0.00 0.00 68 1012.2
20260830162408 81 214 1.0 6.0 0.00 0.00 0.00 68 1012.1
20260830161908 81 192 2.0 3.0 0.00 0.00 0.00 69 1012.1
20260830161408 80 113 1.0 3.0 0.00 0.00 0.00 70 1012.0
20260830160903 79 196 1.0 3.0 0.00 0.00 0.00 70 1012.3
20260830160359 78 151 2.0 3.0 0.00 0.00 0.00 71 1012.5
20260830155854 78 190 2.0 3.0 0.00 0.00 0.00 72 1012.4
20260830155350 77 170 1.0 6.0 0.00 0.00 0.00 73 1012.5
20260830154845 77 206 1.0 2.0 0.00 0.00 0.00 73 1012.6
20260830154341 77 242 1.0 2.0 0.00 0.00 0.00 73 1012.4
20260830153838 77 196 1.0 2.0 0.00 0.00 0.00 73 1012.4
20260830153333 77 358 2.0 2.0 0.00 0.00 0.00 72 1012.5
20260830152831 78 6 2.0 2.0 0.00 0.00 0.00 73 1012.6
20260830152326 78 187 1.0 2.0 0.00 0.00 0.00 73 1012.6
20260830151820 77 202 1.0 3.0 0.00 0.00 0.00 74 1012.6
20260830151319 76 181 0.0 3.0 0.00 0.00 0.00 75 1012.4
20260830150815 76 230 1.0 3.0 0.00 0.00 0.00 76 1012.5
20260830150314 75 184 1.0 2.0 0.00 0.00 0.00 78 1012.5
20260830145809 75 186 1.0 3.0 0.00 0.00 0.00 78 1012.7
20260830145306 74 212 0.0 2.0 0.00 0.00 0.00 79 1012.6
20260830144759 74 177 0.0 1.0 0.00 0.00 0.00 79 1012.7
20260830144255 74 208 0.0 2.0 0.00 0.00 0.00 80 1012.9
20260830143751 73 178 0.0 1.0 0.00 0.00 0.00 80 1012.6
20260830143250 73 204 1.0 1.0 0.00 0.00 0.00 82 1012.7
20260830142744 72 206 0.0 1.0 0.00 0.00 0.00 83 1012.7
20260830142240 72 187 1.0 2.0 0.00 0.00 0.00 83 1012.6
20260830141735 72 169 0.0 1.0 0.00 0.00 0.00 84 1012.3
20260830141230 71 219 1.0 2.0 0.00 0.00 0.00 85 1012.6
20260830140725 71 212 0.0 1.0 0.00 0.00 0.00 85 1012.5
20260830140220 70 195 0.0 0.0 0.00 0.00 0.00 86 1012.5
20260830135714 70 173 0.0 2.0 0.00 0.00 0.00 86 1012.5
20260830135210 69 193 2.0 2.0 0.00 0.00 0.00 86 1012.9
20260830134706 69 127 1.0 2.0 0.00 0.00 0.00 87 1012.8
20260830134200 69 195 0.0 2.0 0.00 0.00 0.00 87 1012.7
20260830133656 69 193 1.0 2.0 0.00 0.00 0.00 87 1013.0
20260830133152 68 203 0.0 1.0 0.00 0.00 0.00 88 1013.0
20260830132648 68 210 1.0 3.0 0.00 0.00 0.00 88 1013.0
20260830132143 68 190 1.0 2.0 0.00 0.00 0.00 89 1012.7
20260830131642 67 205 0.0 1.0 0.00 0.00 0.00 90 1012.9
20260830131137 67 206 0.0 1.0 0.00 0.00 0.00 91 1013.0
20260830130631 67 187 1.0 2.0 0.00 0.00 0.00 92 1013.0
20260830130126 66 189 0.0 1.0 0.00 0.00 0.00 92 1013.0
20260830125625 66 184 0.0 0.0 0.00 0.00 0.00 93 1012.9
20260830125120 66 211 0.0 1.0 0.00 0.00 0.00 93 1013.0
20260830124618 66 198 0.0 2.0 0.00 0.00 0.00 93 1012.8
20260830124114 66 200 0.0 1.0 0.00 0.00 0.00 93 1012.9
20260830123611 66 192 0.0 1.0 0.00 0.00 0.00 94 1013.0
20260830123106 65 202 0.0 0.0 0.00 0.00 0.00 94 1012.9
20260830122603 65 205 0.0 0.0 0.00 0.00 0.00 94 1012.9
20260830122059 65 198 0.0 0.0 0.00 0.00 0.00 94 1013.0
20260830121554 65 206 0.0 0.0 0.00 0.00 0.00 94 1012.9
20260830121053 65 199 0.0 1.0 0.00 0.00 0.00 94 1012.5
20260830120549 65 201 0.0 1.0 0.00 0.00 0.00 94 1012.6
20260830120045 65 190 1.0 2.0 0.00 0.00 0.00 94 1012.9
20260830115541 65 158 0.0 2.0 0.00 0.00 0.00 94 1012.9
20260830115036 65 206 0.0 0.0 0.00 0.00 0.00 94 1012.8
20260830114533 65 181 1.0 1.0 0.00 0.00 0.00 94 1012.9
20260830114032 65 199 0.0 1.0 0.00 0.00 0.00 94 1012.6
20260830113527 66 177 1.0 3.0 0.00 0.00 0.00 94 1012.7
20260830113023 66 193 1.0 1.0 0.00 0.00 0.00 94 1012.9
20260830112519 66 204 0.0 1.0 0.00 0.00 0.00 94 1012.5
20260830112015 66 202 0.0 1.0 0.00 0.00 0.00 94 1012.6
20260830111510 66 192 0.0 1.0 0.00 0.00 0.00 94 1012.4
20260830111006 66 196 0.0 2.0 0.00 0.00 0.00 94 1012.3
20260830110501 66 211 0.0 0.0 0.00 0.00 0.00 94 1012.4
20260830110000 66 201 0.0 1.0 0.00 0.00 0.00 94 1012.2
20260830105456 66 202 0.0 0.0 0.00 0.00 0.00 94 1012.1
20260830104953 66 211 0.0 0.0 0.00 0.00 0.00 94 1012.0
20260830104449 66 208 0.0 0.0 0.00 0.00 0.00 94 1011.9
20260830103944 66 211 0.0 0.0 0.00 0.00 0.00 94 1011.9
20260830103439 66 206 0.0 0.0 0.00 0.00 0.00 94 1012.1
20260830102937 66 204 0.0 0.0 0.00 0.00 0.00 94 1012.0
20260830102433 66 213 0.0 0.0 0.00 0.00 0.00 94 1011.8
20260830101929 66 215 0.0 0.0 0.00 0.00 0.00 94 1012.2
20260830101424 66 211 0.0 0.0 0.00 0.00 0.00 94 1011.9
20260830100924 66 209 0.0 0.0 0.00 0.00 0.00 94 1012.1
20260830100423 66 208 0.0 0.0 0.00 0.00 0.00 94 1012.1
20260830095922 66 202 0.0 0.0 0.00 0.00 0.00 94 1011.9
20260830095418 66 203 0.0 0.0 0.00 0.00 0.00 94 1012.3
20260830094914 66 216 0.0 0.0 0.00 0.00 0.00 94 1012.4
20260830094410 66 212 0.0 0.0 0.00 0.00 0.00 94 1012.2
20260830093906 66 213 0.0 0.0 0.00 0.00 0.00 94 1012.2
20260830093400 66 213 0.0 0.0 0.00 0.00 0.00 94 1012.2
20260830092856 66 208 0.0 0.0 0.00 0.00 0.00 93 1012.3
20260830092352 66 216 0.0 0.0 0.00 0.00 0.00 93 1012.4
20260830091848 66 212 0.0 0.0 0.00 0.00 0.00 93 1012.1
20260830091348 67 216 0.0 0.0 0.00 0.00 0.00 93 1012.0
20260830090846 67 213 0.0 0.0 0.00 0.00 0.00 93 1012.2
20260830090342 67 208 0.0 0.0 0.00 0.00 0.00 93 1012.2
20260830085842 67 203 0.0 0.0 0.00 0.00 0.00 93 1012.2
20260830085337 67 209 0.0 0.0 0.00 0.00 0.00 93 1012.2
20260830084833 67 210 0.0 0.0 0.00 0.00 0.00 93 1012.2
20260830084328 68 192 0.0 0.0 0.00 0.00 0.00 93 1012.1
20260830083823 68 206 0.0 0.0 0.00 0.00 0.00 93 1012.3
20260830083319 68 207 0.0 1.0 0.00 0.00 0.00 93 1012.3
20260830082818 68 205 0.0 0.0 0.00 0.00 0.00 93 1012.1
20260830082313 67 204 0.0 0.0 0.00 0.00 0.00 93 1012.4
20260830081809 68 204 0.0 0.0 0.00 0.00 0.00 93 1012.1
20260830081308 68 204 0.0 0.0 0.00 0.00 0.00 92 1012.0
20260830080803 68 202 0.0 0.0 0.00 0.00 0.00 92 1012.3
20260830080300 68 208 0.0 0.0 0.00 0.00 0.00 92 1012.4
20260830075759 68 206 0.0 0.0 0.00 0.00 0.00 92 1012.2
20260830075255 68 206 0.0 0.0 0.00 0.00 0.00 92 1012.2
20260830074749 68 206 0.0 0.0 0.00 0.00 0.00 92 1012.1
20260830074245 68 206 0.0 0.0 0.00 0.00 0.00 92 1012.0
20260830073741 68 206 0.0 0.0 0.00 0.00 0.00 91 1011.8
20260830073237 68 206 0.0 0.0 0.00 0.00 0.00 91 1012.0
20260830072736 69 206 0.0 0.0 0.00 0.00 0.00 91 1012.0
20260830072232 69 206 0.0 0.0 0.00 0.00 0.00 91 1012.1
20260830071727 69 204 0.0 0.0 0.00 0.00 0.00 90 1012.0
20260830071226 69 206 0.0 0.0 0.00 0.00 0.00 90 1012.3
20260830070725 69 208 0.0 0.0 0.00 0.00 0.00 90 1012.2
20260830070220 69 206 0.0 0.0 0.00 0.00 0.00 90 1012.1
20260830065719 69 207 0.0 0.0 0.00 0.00 0.00 90 1012.3
20260830065214 70 204 0.0 0.0 0.00 0.00 0.00 89 1012.3
20260830064712 70 207 0.0 0.0 0.00 0.00 0.00 89 1012.3
20260830064208 70 200 0.0 0.0 0.00 0.00 0.00 89 1012.4
20260830063702 70 200 0.0 0.0 0.00 0.00 0.00 88 1012.2
20260830063201 70 200 0.0 0.0 0.00 0.00 0.00 88 1012.3
20260830062656 70 201 0.0 0.0 0.00 0.00 0.00 88 1012.2
20260830062150 70 208 0.0 1.0 0.00 0.00 0.00 88 1012.0
20260830061644 70 201 0.0 0.0 0.00 0.00 0.00 88 1012.4
20260830061141 70 197 0.0 0.0 0.00 0.00 0.00 87 1012.3
20260830060638 70 210 0.0 0.0 0.00 0.00 0.00 87 1012.5
20260830060133 70 209 0.0 0.0 0.00 0.00 0.00 87 1012.5
20260830055628 70 214 0.0 0.0 0.00 0.00 0.00 87 1012.3
20260830055124 71 204 0.0 0.0 0.00 0.00 0.00 87 1012.4
20260830054619 71 204 0.0 0.0 0.00 0.00 0.00 86 1012.6
20260830054114 71 208 0.0 0.0 0.00 0.00 0.00 86 1012.4
20260830053610 71 206 0.0 0.0 0.00 0.00 0.00 86 1012.6
20260830053109 71 206 0.0 0.0 0.00 0.00 0.00 85 1012.5
20260830052605 71 199 0.0 0.0 0.00 0.00 0.00 85 1012.4
20260830052100 72 208 0.0 0.0 0.00 0.00 0.00 85 1012.4
20260830051554 72 206 0.0 1.0 0.00 0.00 0.00 84 1012.4
20260830051050 72 202 0.0 2.0 0.00 0.00 0.00 84 1012.7
20260830050544 72 204 1.0 1.0 0.00 0.00 0.00 84 1012.5
20260830050038 73 206 0.0 1.0 0.00 0.00 0.00 83 1012.4
20260830045537 73 199 1.0 2.0 0.00 0.00 0.00 83 1012.6
20260830045033 73 212 1.0 2.0 0.00 0.00 0.00 82 1012.6
20260830044532 74 201 1.0 2.0 0.00 0.00 0.00 81 1012.4
20260830044027 74 209 1.0 2.0 0.00 0.00 0.00 81 1012.4
20260830043523 74 203 1.0 2.0 0.00 0.00 0.00 80 1012.6
20260830043021 75 198 2.0 2.0 0.00 0.00 0.00 80 1012.3
20260830042519 75 175 2.0 5.0 0.00 0.00 0.00 79 1012.4
20260830042014 75 170 2.0 2.0 0.00 0.00 0.00 79 1012.3
20260830041514 75 192 0.0 1.0 0.00 0.00 0.00 78 1012.3
20260830041008 75 173 0.0 1.0 0.00 0.00 0.00 78 1012.2
20260830040504 75 207 0.0 1.0 0.00 0.00 0.00 78 1012.1
20260830040003 75 204 1.0 1.0 0.00 0.00 0.00 77 1012.1
20260830035502 76 200 0.0 1.0 0.00 0.00 0.00 77 1012.2
20260830034958 75 206 0.0 1.0 0.00 0.00 0.00 77 1012.0
20260830034454 76 206 0.0 0.0 0.00 0.00 0.00 77 1012.0
20260830033952 76 210 0.0 1.0 0.00 0.00 0.00 77 1011.8
20260830033448 76 206 0.0 0.0 0.00 0.00 0.00 77 1012.0
20260830032943 76 204 0.0 0.0 0.00 0.00 0.00 77 1011.8
20260830032442 76 206 0.0 0.0 0.00 0.00 0.00 77 1011.9
20260830031937 76 211 0.0 1.0 0.00 0.00 0.00 77 1011.8
20260830031428 76 214 0.0 0.0 0.00 0.00 0.00 77 1011.7
20260830030923 76 214 0.0 0.0 0.00 0.00 0.00 77 1011.8
20260830030418 76 214 0.0 0.0 0.00 0.00 0.00 77 1011.4
20260830025912 76 214 0.0 0.0 0.00 0.00 0.00 77 1011.4
20260830025412 76 213 0.0 0.0 0.00 0.00 0.00 77 1011.4
20260830024911 76 205 0.0 1.0 0.00 0.00 0.00 77 1011.3
20260830024407 76 214 0.0 0.0 0.00 0.00 0.00 77 1011.3
20260830023904 76 212 0.0 0.0 0.00 0.00 0.00 77 1011.2
20260830023403 76 215 0.0 1.0 0.00 0.00 0.00 78 1011.2
20260830022902 76 208 0.0 1.0 0.00 0.00 0.00 78 1011.2
20260830022358 76 208 0.0 0.0 0.00 0.00 0.00 78 1011.4
20260830021858 76 209 0.0 0.0 0.00 0.00 0.00 77 1011.0
20260830021353 76 204 0.0 1.0 0.00 0.00 0.00 77 1011.0
20260830020852 77 196 0.0 1.0 0.00 0.00 0.00 77 1011.3
20260830020347 77 201 0.0 1.0 0.00 0.00 0.00 76 1011.1
20260830015842 77 198 0.0 1.0 0.00 0.00 0.00 76 1011.0
20260830015337 77 203 0.0 1.0 0.00 0.00 0.00 75 1011.0
20260830014833 77 227 1.0 1.0 0.00 0.00 0.00 75 1011.0
20260830014329 78 211 1.0 1.0 0.00 0.00 0.00 75 1011.0
20260830013825 78 199 1.0 1.0 0.00 0.00 0.00 74 1011.3
20260830013319 78 208 0.0 2.0 0.00 0.00 0.00 74 1010.7
20260830012815 78 192 1.0 2.0 0.00 0.00 0.00 73 1011.1
20260830012310 78 201 0.0 2.0 0.00 0.00 0.00 73 1010.7
20260830011806 78 203 0.0 1.0 0.00 0.00 0.00 73 1010.7
20260830011301 79 211 0.0 1.0 0.00 0.00 0.00 72 1010.7
20260830010756 79 197 0.0 1.0 0.00 0.00 0.00 72 1010.8
20260830010250 79 205 0.0 1.0 0.00 0.00 0.00 72 1010.8
20260830005750 79 208 0.0 2.0 0.00 0.00 0.00 71 1010.7
20260830005248 79 198 0.0 1.0 0.00 0.00 0.00 71 1010.9
20260830004743 80 194 1.0 2.0 0.00 0.00 0.00 71 1010.7
20260830004238 80 188 0.0 2.0 0.00 0.00 0.00 71 1010.9
20260830003732 80 215 1.0 3.0 0.00 0.00 0.00 70 1010.6
20260830003227 80 210 0.0 1.0 0.00 0.00 0.00 70 1010.6
20260830002724 80 191 1.0 1.0 0.00 0.00 0.00 70 1010.6
20260830002220 80 201 0.0 1.0 0.00 0.00 0.00 70 1010.5